Regional Weather Roundup
Issued by NWS

Home | Current Version | Previous Version | Graphics & Text | Print | Product List | Glossary On
Versions: 1 2 3 4 5 6 7 8 9 10 11 12 13 14 15 16 17 18 19 20 21 22 23 24 25 26 27 28 29 30 31 32 33 34 35 36 37 38 39 40 41 42 43 44 45 46 47 48 49 50
283
ASUS43 KMPX 201610
RWRMN
WEATHER ROUNDUP FOR MINNESOTA
NATIONAL WEATHER SERVICE TWIN CITIES/CHANHASSEN MN
1100 AM CDT SUN MAY 20 2018


NOTE: "FAIR" INDICATES FEW OR NO CLOUDS BELOW 12,000 FEET WITH NO
SIGNIFICANT WEATHER AND/OR OBSTRUCTIONS TO VISIBILITY. N/A MEANS
CURRENT SKY AND/OR WEATHER CONDITIONS ARE NOT AVAILABLE.

MNZ060>063-068>070-201700-
   Twin Cities Metro

CITY           SKY/WX    TMP DP  RH WIND       PRES   REMARKS
TWIN CITIES    PTSUNNY   58  40  51 E9        30.24F
ST PAUL        FAIR      59  40  49 NE10      30.24F
CRYSTAL        FAIR      60  33  36 E7        30.23F
BLAINE         MOSUNNY   61  34  36 NE12G17   30.24F
LAKEVILLE      PTSUNNY   54  41  62 NE7       30.23S
EDEN PRAIRIE   FAIR      57  39  51 E9        30.23S
SOUTH ST PAUL  FAIR      57  38  48 E6        30.23F
LAKE ELMO      FAIR      59  37  44 NE9       30.25S
$$
MNZ001>005-007-008-013>017-022>024-027-028-201700-
   Northwest Minnesota

CITY           SKY/WX    TMP DP  RH WIND       PRES   REMARKS
BEMIDJI        FAIR      62  36  37 CALM      30.27F
HALLOCK        FAIR      66  41  39 SW7       30.22F
ROSEAU         FAIR      64  41  42 W7        30.23F
WARROAD        FAIR      64  43  45 W9        30.24S
THIEF RVR FALL FAIR      63  33  32 W10       30.27F
CROOKSTON      FAIR      64  36  34 SW9       30.27S
FOSSTON        FAIR      63  36  36 SW6       30.28F
DETROIT LAKES  FAIR      59  32  36 S7        30.30S
MOORHEAD       FAIR      63  34  34 CALM      30.29S
PARK RAPIDS    FAIR      60  33  36 VRB7      30.28F
MAHNOMEN       FAIR      60  35  39 W5        30.28F
$$
MNZ006-009>011-018-025>026-201700-
   North Central Minnesota

CITY           SKY/WX    TMP DP  RH WIND       PRES   REMARKS
BAUDETTE       FAIR      65  31  28 NW7       30.24S
FLAG ISLAND    FAIR      52  43  71 S10       30.21S
INTL FALLS     FAIR      64  36  35 W7        30.24F
WASKISH        CLOUDY    61  45  55 W6        30.27S
BIG FORK       FAIR      64  34  32 SW5       30.26F
LONGVILLE      FAIR      57  39  51 SW5       30.29S
GRAND RAPIDS   FAIR      58  36  43 VRB3      30.31S
CRANE LAKE     FAIR      61  36  39 NW6       30.27F
ORR            FAIR      61  34  36 CALM      30.24F
COOK           FAIR      61  37  41 W5        30.27F
WALKER         FAIR      58  35  41 E3        30.28F
$$
MNZ012-019>021-037-201700-
   Northeast Minnesota

CITY           SKY/WX    TMP DP  RH WIND       PRES   REMARKS
DULUTH         FAIR      58  28  32 VRB3      30.29S
ELY            FAIR      57  34  41 W3        30.26F
HIBBING        FAIR      59  35  40 CALM      30.28S
EVELETH        FAIR      59  36  41 W6        30.29S
DULUTH HARBOR  FAIR      48  41  76 NE7       30.31S
TWO HARBORS    FAIR      64  37  36 SE6       30.27S
SILVER BAY     FAIR      59  30  33 S9        30.26S
GRAND MARAIS     N/A     46  34  62 SW13      30.27F
G MARAIS ARPRT FAIR      61  30  31 NW5       30.25F
$$
MNZ029>031-032-039>041-046>048-054>057-064-201700-
   West Central Minnesota

CITY           SKY/WX    TMP DP  RH WIND       PRES   REMARKS
FERGUS FALLS   FAIR      61  34  36 E8        30.25S
WHEATON        SUNNY     61  28  29 E8        30.29S
MORRIS         CLOUDY    61  34  36 E14       30.26F
ALEXANDRIA     FAIR      60  34  37 E12G18    30.29R
ELBOW LAKE     FAIR      58  35  41 SE7       30.29R
WADENA         FAIR      61  36  39 E9        30.28S
GLENWOOD       FAIR      59  32  36 NE16      30.27S
APPLETON       MOSUNNY   61  28  29 E10G18    30.24F
BENSON         SUNNY     63  28  27 E14       30.26F
ORTONVILLE     MOSUNNY   59  32  36 E10G16    30.26S
MADISON        SUNNY     63  34  34 NE12G17   30.24F
WILLMAR        FAIR      59  28  31 NE17      30.26F
$$
MNZ033>034-036-042>043-049>051-058-059-201700-
   Central Minnesota

CITY           SKY/WX    TMP DP  RH WIND       PRES   REMARKS
ST CLOUD       FAIR      59  23  25 E13G22    30.26S
SAUK CENTRE    FAIR      57  32  38 E14       30.27S
PAYNESVILLE    FAIR      59  27  29 E12G21    30.26S
AITKIN         FAIR      57  34  41 E5        30.27F
PINE RIVER     FAIR      55  36  47 E5        30.31F
BRAINERD       FAIR      60  32  34 NE8       30.28F
STAPLES        FAIR      57  30  35 E7        30.29R
LONG PRAIRIE   FAIR      55  34  44 N9        30.29S
LITTLE FALLS   FAIR      55  32  41 E10       30.28S
LITCHFIELD     FAIR      61  32  33 NE15      30.24F
BUFFALO        FAIR      58  29  33 NE12G17   30.25F
MAPLE LAKE     FAIR      60  32  35 E13       30.25F
HUTCHINSON     FAIR      60  37  42 E15       30.24S
$$
MNZ037-044-045-052-053-201700-
   East Central Minnesota

CITY           SKY/WX    TMP DP  RH WIND       PRES   REMARKS
PRINCETON      FAIR      61  27  27 E7        30.26F
MORA           FAIR      55  32  41 NE7       30.29F
CAMBRIDGE      FAIR      61  37  41 E7        30.26F
RUSH CITY      FAIR      58  30  33 NE6       30.27F
MOOSE LAKE     FAIR      55  32  41 N6        30.26F
HINCKLEY       FAIR      59  32  36 E8        30.28S
CLOQUET        FAIR      55  25  30 NW3       30.29S
MCGREGOR       FAIR      57  32  38 CALM      30.29F
$$
MNZ071>073-080-081-089-090-097-098-201700-
   Southwest Minnesota

CITY           SKY/WX    TMP DP  RH WIND       PRES   REMARKS
MONTEVIDEO     CLOUDY    63  27  25 SE13G21   30.24F
GRANITE FALLS  CLOUDY    59  32  36 NE12      30.24F
CANBY          CLOUDY    56  31  37 NE13G18   30.25F
MARSHALL       CLOUDY    56  37  49 E13       30.24S
REDWOOD FALLS  CLOUDY    59  35  40 E14G21    30.21F
OLIVIA         CLOUDY    59  32  36 E12G18    30.22S
PIPESTONE      PTSUNNY   54  39  58 E10       30.21R
WINDOM         CLOUDY    52  32  46 NE10      30.20F
WORTHINGTON    CLOUDY    50  40  68 NE13      30.21R
JACKSON        CLOUDY    52  39  62 NE9G17    30.21R
TRACY          CLOUDY    56  41  55 NE7G17    30.22S
SLAYTON        CLOUDY    54  40  59 NE10G17   30.22S
$$
MNZ065>067-074>077-082>085-091>093-201700-
   South Central Minnesota

CITY           SKY/WX    TMP DP  RH WIND       PRES   REMARKS
MANKATO        CLOUDY    52  40  63 NE8       30.23R
NEW ULM        CLOUDY    55  39  54 E9        30.22S
ST JAMES       CLOUDY    54  41  62 NE8       30.23S
FAIRMONT       CLOUDY    54  42  64 NE14      30.21S
GLENCOE        FAIR      57  41  53 NE9       30.23R
FARIBAULT      CLOUDY    54  43  66 CALM      30.23R
OWATONNA       CLOUDY    52  45  76 NE12      30.22R
WASECA         CLOUDY    52  43  71 NE10      30.23R
ALBERT LEA     CLOUDY    52  41  66 E10       30.21R
$$
MNZ078>079-086>088-094>096-201700-
   Southeast Minnesota

CITY           SKY/WX    TMP DP  RH WIND       PRES   REMARKS
ROCHESTER      CLOUDY    49  44  83 NE13      30.23R
RED WING       PTSUNNY   55  36  47 E7        30.22F
STANTON        CLOUDY    54  41  61 NE12      30.22S
DODGE CENTER   CLOUDY    48  41  76 NE12      30.23R
WINONA         CLOUDY    54  45  71 E6        30.22R
AUSTIN         LGT RAIN  48  45  87 NE9       30.21R
PRESTON        CLOUDY    47  42  83 NE5       30.22R
$$
ABBREVIATIONS USED IN REMARKS
   TC - TEMPERATURES IN CELSIUS
  WCI - WIND CHILL INDEX
   HX - HEAT INDEX
  VSB - VISIBILITY
$$




USA.gov is the U.S. government's official web portal to all federal, state and local government web resources and services.